DW2935 Weather Reports


time (UTC)temp
C
wind
direction
speed
KPH
gust
KPH
rain 1hr
cm
rain 24hr
cm
rain mn
cm
humidity
%
barometer
mb
20260507192540 15 0.0 0.0 0.00 0.69 0.00 36 1005.3
20260507192038 16 0.0 0.0 0.00 0.69 0.00 33 1005.4
20260507191514 15 0.0 0.0 0.00 0.69 0.00 31 1005.4
20260507191013 16 0.0 0.0 0.00 0.71 0.00 33 1005.4
20260507190734 16 0.0 0.0 0.00 0.71 0.00 32 1005.5
20260507190233 16 0.0 0.0 0.00 0.74 0.00 34 1005.6
20260507185731 15 0.0 0.0 0.00 0.74 0.00 34 1005.7
20260507185001 15 0.0 0.0 0.00 0.74 0.00 37 1005.7
20260507184424 16 0.0 0.0 0.00 0.76 0.00 38 1005.9
20260507184154 16 0.0 0.0 0.00 0.76 0.00 37 1005.8
20260507183420 16 0.0 0.0 0.00 0.79 0.00 34 1005.8
20260507183149 16 0.0 0.0 0.00 0.79 0.00 37 1005.8
20260507182411 16 0.0 0.0 0.00 0.79 0.00 37 1005.8
20260507181903 15 0.0 0.0 0.00 0.81 0.00 34 1005.9
20260507181354 16 0.0 0.0 0.00 0.81 0.00 37 1005.9
20260507180853 15 0.0 0.0 0.00 0.84 0.00 37 1006.0
20260507180349 16 0.0 0.0 0.00 0.86 0.00 39 1005.9
20260507175827 16 0.0 0.0 0.00 0.89 0.00 37 1006.0
20260507175327 15 0.0 0.0 0.00 0.91 0.00 37 1005.9
20260507174823 15 0.0 0.0 0.00 0.94 0.00 39 1005.9
20260507174318 15 0.0 0.0 0.00 0.97 0.00 40 1005.9
20260507173811 13 0.0 0.0 0.00 0.97 0.00 44 1006.0
20260507173305 15 0.0 0.0 0.00 0.99 0.00 40 1006.0
20260507173033 15 0.0 0.0 0.00 1.02 0.00 44 1006.0
20260507172242 15 0.0 0.0 0.00 1.02 0.00 41 1006.2
20260507171737 15 0.0 0.0 0.00 1.02 0.00 43 1006.2
20260507171240 15 0.0 0.0 0.00 1.04 0.00 44 1006.3
20260507171222 14 0.0 0.0 0.00 1.04 0.00 44 1006.5
20260507170211 14 0.0 0.0 0.00 1.04 0.00 47 1006.4
20260507165701 15 0.0 0.0 0.00 1.04 0.00 45 1006.5
20260507165432 15 0.0 0.0 0.00 1.04 0.00 42 1006.5
20260507164700 14 0.0 0.0 0.00 1.04 0.00 51 1006.6
20260507164159 13 0.0 0.0 0.00 1.04 0.00 48 1006.6
20260507163658 13 0.0 0.0 0.00 1.04 0.00 49 1006.7
20260507163156 13 0.0 0.0 0.00 1.04 0.00 51 1006.7
20260507162650 15 0.0 0.0 0.00 1.04 0.00 46 1006.7
20260507162143 15 0.0 0.0 0.00 1.04 0.00 48 1006.7
20260507161633 15 0.0 0.0 0.00 1.04 0.00 45 1006.7
20260507161123 15 0.0 0.0 0.00 1.04 0.00 47 1006.8
20260507160615 13 0.0 0.0 0.00 1.04 0.00 48 1006.8
20260507160339 14 0.0 0.0 0.00 1.04 0.00 47 1006.9
20260507155606 13 0.0 0.0 0.00 1.04 0.00 48 1006.9
20260507155104 14 0.0 0.0 0.00 1.04 0.00 47 1006.9
20260507154601 14 0.0 0.0 0.00 1.04 0.00 44 1006.9
20260507154052 15 0.0 0.0 0.00 1.04 0.00 49 1006.9
20260507153551 14 0.0 0.0 0.00 1.04 0.00 52 1006.8
20260507153035 13 0.0 0.0 0.00 1.04 0.00 52 1006.9
20260507152528 12 0.0 0.0 0.00 1.04 0.00 57 1007.1
20260507152028 11 0.0 0.0 0.00 1.04 0.00 63 1007.2
20260507151528 12 0.0 0.0 0.00 1.04 0.00 63 1007.2
20260507151001 13 0.0 0.0 0.00 1.04 0.00 66 1007.1
20260507150502 12 0.0 0.0 0.00 1.04 0.00 65 1007.2
20260507145956 11 0.0 0.0 0.00 1.04 0.00 68 1007.2
20260507145450 11 0.0 0.0 0.00 1.04 0.00 70 1007.2
20260507144947 12 0.0 0.0 0.00 1.04 0.00 68 1007.2
20260507144438 12 0.0 0.0 0.00 1.04 0.00 71 1007.3
20260507143934 11 0.0 0.0 0.00 1.04 0.00 71 1007.3
20260507143422 10 0.0 0.0 0.00 1.04 0.00 74 1007.3
20260507142905 10 0.0 0.0 0.00 1.04 0.00 72 1007.2
20260507142404 10 0.0 0.0 0.00 1.04 0.00 72 1007.3
20260507141856 11 0.0 0.0 0.00 1.04 0.00 73 1007.3
20260507141621 11 0.0 0.0 0.00 1.04 0.00 73 1007.3
20260507140848 11 0.0 0.0 0.00 1.04 0.00 73 1007.2
20260507140344 11 0.0 0.0 0.00 1.04 0.00 74 1007.3
20260507135840 10 0.0 0.0 0.00 1.04 0.00 78 1007.4
20260507135322 10 0.0 0.0 0.00 1.04 0.00 76 1007.4
20260507134810 10 0.0 0.0 0.00 1.04 0.00 79 1007.4
20260507134304 10 0.0 0.0 0.00 1.04 0.00 76 1007.4
20260507133757 10 0.0 0.0 0.00 1.04 0.00 74 1007.5
20260507133521 11 0.0 0.0 0.00 1.04 0.00 72 1007.6
20260507132746 11 0.0 0.0 0.00 1.04 0.00 75 1007.6
20260507132246 11 0.0 0.0 0.00 1.04 0.00 75 1007.6
20260507131730 11 0.0 0.0 0.00 1.04 0.00 78 1007.7
20260507131224 10 0.0 0.0 0.00 1.04 0.00 78 1007.8
20260507130956 11 0.0 0.0 0.00 1.04 0.00 76 1007.8
20260507130433 11 0.0 0.0 0.00 1.04 0.00 76 1007.8
20260507125655 10 0.0 0.0 0.00 1.04 0.00 78 1007.8
20260507125152 10 0.0 0.0 0.00 1.04 0.00 77 1007.7
20260507124916 10 0.0 0.0 0.00 1.04 0.00 78 1007.6
20260507124135 10 0.0 0.0 0.00 1.04 0.00 82 1007.5
20260507123628 10 0.0 0.0 0.00 1.04 0.00 81 1007.6
20260507123116 10 0.0 0.0 0.00 1.04 0.00 85 1007.6
20260507122606 9 0.0 0.0 0.00 1.04 0.00 89 1007.6
20260507122101 8 0.0 0.0 0.00 1.04 0.00 95 1007.6
20260507121559 8 0.0 0.0 0.00 1.04 0.00 95 1007.6
20260507121054 7 0.0 0.0 0.00 1.04 0.00 95 1007.7
20260507120548 7 0.0 0.0 0.00 1.04 0.00 95 1007.8
20260507120018 7 0.0 0.0 0.00 1.04 0.00 95 1007.8
20260507115506 6 0.0 0.0 0.00 1.04 0.00 95 1007.9
20260507115006 6 0.0 0.0 0.00 1.04 0.00 95 1007.9
20260507114502 6 0.0 0.0 0.00 1.04 0.00 94 1007.9
20260507114001 6 0.0 0.0 0.00 1.04 0.00 94 1008.0
20260507113500 6 0.0 0.0 0.00 1.04 0.00 94 1007.9
20260507112944 5 0.0 0.0 0.00 1.04 0.00 94 1007.9
20260507112414 5 0.0 0.0 0.00 1.04 0.00 94 1007.8
20260507112142 5 0.0 0.0 0.00 1.04 0.00 93 1007.9
20260507111402 5 0.0 0.0 0.00 1.04 0.00 93 1007.9
20260507111114 5 0.0 0.0 0.00 1.04 0.00 93 1007.8
20260507110559 5 0.0 0.0 0.00 1.04 0.00 93 1007.6
20260507105809 5 0.0 0.0 0.00 1.04 0.00 93 1007.5
20260507105529 5 0.0 0.0 0.00 1.04 0.00 93 1007.6
20260507104802 5 0.0 0.0 0.00 1.04 0.00 93 1007.4
20260507104520 5 0.0 0.0 0.00 1.04 0.00 93 1007.3
20260507104005 5 0.0 0.0 0.00 1.04 0.00 93 1007.3
20260507103510 5 0.0 0.0 0.00 1.04 0.00 93 1007.2
20260507103350 5 0.0 0.0 0.00 1.04 0.00 93 1007.3
20260507102222 5 0.0 0.0 0.00 1.04 0.00 93 1007.3
20260507101713 5 0.0 0.0 0.00 1.04 0.00 93 1007.3
20260507101211 5 0.0 0.0 0.00 1.04 0.00 93 1007.6
20260507100704 5 0.0 0.0 0.00 1.04 0.00 93 1007.6
20260507100404 5 0.0 0.0 0.00 1.04 0.00 93 1007.3
20260507095633 5 0.0 0.0 0.00 1.04 0.00 93 1007.3
20260507095103 5 0.0 0.0 0.00 1.04 0.00 93 1007.6
20260507094557 5 0.0 0.0 0.00 1.04 0.00 93 1007.7
20260507094051 6 0.0 0.0 0.00 1.04 0.00 93 1007.6
20260507093809 6 0.0 0.0 0.00 1.04 0.00 93 1007.5
20260507093242 6 0.0 0.0 0.00 1.04 0.00 93 1007.4
20260507092506 6 0.0 0.0 0.00 1.04 0.00 93 1007.5
20260507091959 6 0.0 0.0 0.00 1.04 0.00 93 1007.7
20260507091437 6 0.0 0.0 0.00 1.04 0.00 93 1007.7
20260507090935 6 0.0 0.0 0.00 1.04 0.00 93 1007.5
20260507090412 6 0.0 0.0 0.00 1.04 0.00 93 1007.3
20260507085852 6 0.0 0.0 0.00 1.04 0.00 93 1007.0
20260507085534 6 0.0 0.0 0.00 1.04 0.00 93 1006.9
20260507084803 6 0.0 0.0 0.00 1.04 0.00 93 1007.0
20260507084532 6 0.0 0.0 0.00 1.04 0.00 93 1007.1
20260507083726 6 0.0 0.0 0.00 1.04 0.00 93 1007.1
20260507083207 6 0.0 0.0 0.00 1.04 0.00 93 1007.1
20260507082704 6 0.0 0.0 0.00 1.04 0.00 93 1007.0
20260507082201 6 0.0 0.0 0.00 1.04 0.00 93 1007.2
20260507081651 6 0.0 0.0 0.00 1.04 0.00 93 1006.9
20260507081110 6 0.0 0.0 0.00 1.04 0.00 93 1006.9
20260507080602 6 0.0 0.0 0.00 1.04 0.00 93 1007.0
20260507080106 6 0.0 0.0 0.00 1.04 0.00 93 1007.0
20260507075559 6 0.0 0.0 0.00 1.04 0.00 93 1006.9
20260507075101 6 0.0 0.0 0.00 1.04 0.00 93 1006.9
20260507074553 6 0.0 0.0 0.00 1.04 0.00 93 1006.9
20260507074319 6 0.0 0.0 0.00 1.04 0.00 93 1006.9
20260507073509 7 0.0 0.0 0.00 1.04 0.00 92 1006.8
20260507073014 7 0.0 0.0 0.00 1.04 0.00 92 1007.1
20260507072503 7 0.0 0.0 0.00 1.04 0.00 93 1006.7
20260507071934 7 0.0 0.0 0.00 1.04 0.00 93 1006.4
20260507071427 7 0.0 0.0 0.00 1.04 0.00 93 1006.5
20260507070905 7 0.0 0.0 0.00 1.04 0.00 93 1006.4
20260507070402 7 0.0 0.0 0.00 1.04 0.00 93 1006.4
20260507065906 7 0.0 0.0 0.00 1.04 0.00 93 1006.2
20260507065902 7 0.0 0.0 0.00 1.04 0.00 93 1006.7
20260507064854 7 0.0 0.0 0.00 1.04 0.00 93 1006.7
20260507064345 7 0.0 0.0 0.00 1.04 0.00 93 1006.7
20260507063833 7 0.0 0.0 0.00 1.04 0.00 93 1006.5
20260507063306 7 0.0 0.0 0.00 1.04 0.00 92 1006.7
20260507062801 7 0.0 0.0 0.00 1.04 0.00 92 1006.5
20260507062306 7 0.0 0.0 0.00 1.04 0.00 92 1006.6
20260507061746 7 0.0 0.0 0.00 1.04 0.00 92 1006.7
20260507061238 7 0.0 0.0 0.00 1.04 0.00 92 1006.4
20260507060724 7 0.0 0.0 0.00 1.04 0.00 92 1006.3
20260507060220 7 0.0 0.0 0.00 1.04 0.00 92 1006.5
20260507055703 7 0.0 0.0 0.00 1.04 0.00 92 1006.6
20260507055205 7 0.0 0.0 0.00 1.04 0.00 92 1006.6
20260507054700 8 0.0 0.0 0.00 1.04 0.00 92 1006.8
20260507054430 8 0.0 0.0 0.00 1.04 0.00 92 1006.7
20260507053634 8 0.0 0.0 0.00 1.04 0.00 92 1006.6
20260507053132 8 0.0 0.0 0.00 1.04 0.00 92 1006.6
20260507052622 8 0.0 0.0 0.00 1.04 0.00 92 1006.5
20260507052104 8 0.0 0.0 0.00 1.04 0.00 92 1006.3
20260507051601 8 0.0 0.0 0.00 1.04 0.00 92 1006.1
20260507051050 8 0.0 0.0 0.00 1.04 0.00 92 1006.2
20260507050546 8 0.0 0.0 0.00 1.04 0.00 92 1006.2
20260507050020 8 0.0 0.0 0.00 1.04 0.00 92 1006.3
20260507045506 8 0.0 0.0 0.00 1.04 0.00 92 1006.2
20260507045000 8 0.0 0.0 0.00 1.04 0.00 92 1006.3
20260507044452 8 0.0 0.0 0.00 1.04 0.00 92 1006.3
20260507043934 8 0.0 0.0 0.00 1.04 0.00 92 1006.3
20260507043428 8 0.0 0.0 0.00 1.04 0.00 92 1006.4
20260507042904 8 0.0 0.0 0.00 1.04 0.00 92 1006.4
20260507042626 8 0.0 0.0 0.00 1.04 0.00 92 1006.7
20260507041830 9 0.0 0.0 0.03 1.04 0.00 92 1006.6
20260507041306 9 0.0 0.0 0.03 1.04 0.00 91 1006.5
20260507040758 9 0.0 0.0 0.03 1.04 0.00 91 1006.5
20260507040258 9 0.0 0.0 0.03 1.04 0.00 92 1006.4
20260507035754 9 0.0 0.0 0.05 1.04 1.04 91 1006.3
20260507035245 9 0.0 0.0 0.08 1.04 1.04 91 1006.3
20260507034724 9 0.0 0.0 0.10 1.04 1.04 91 1006.3
20260507034455 9 0.0 0.0 0.13 1.04 1.04 91 1006.3
20260507033716 10 0.0 0.0 0.13 1.04 1.04 91 1006.4
20260507033209 10 0.0 0.0 0.13 1.04 1.04 91 1006.3
20260507032652 10 0.0 0.0 0.15 1.04 1.04 91 1006.3
20260507032143 10 0.0 0.0 0.15 1.04 1.04 91 1006.3
20260507031639 10 0.0 0.0 0.13 1.02 1.02 91 1006.3
20260507031409 10 0.0 0.0 0.13 1.02 1.02 91 1006.3
20260507031125 10 0.0 0.0 0.13 1.02 1.02 91 1006.3
20260507030123 10 0.0 0.0 0.15 1.02 1.02 91 1006.5
20260507025606 10 0.0 0.0 0.15 0.99 0.99 91 1006.3
20260507025106 11 0.0 0.0 0.18 0.97 0.97 91 1006.5
20260507024602 11 0.0 0.0 0.18 0.94 0.94 91 1006.3
20260507024100 11 0.0 0.0 0.15 0.91 0.91 91 1006.3
20260507023548 11 0.0 0.0 0.15 0.91 0.91 91 1006.1
20260507023313 11 0.0 0.0 0.15 0.91 0.91 91 1006.0
20260507022511 11 0.0 0.0 0.13 0.89 0.89 91 1006.0
20260507022007 11 0.0 0.0 0.13 0.89 0.89 91 1006.0
20260507021449 12 0.0 0.0 0.15 0.89 0.89 91 1006.0
20260507020945 12 0.0 0.0 0.15 0.89 0.89 91 1005.8
20260507020702 12 0.0 0.0 0.18 0.89 0.89 91 1005.5
20260507020142 12 0.0 0.0 0.15 0.86 0.86 91 1005.6
20260507015412 12 0.0 0.0 0.15 0.84 0.84 91 1005.7
20260507014904 12 0.0 0.0 0.10 0.79 0.79 91 1005.6
20260507014358 12 0.0 0.0 0.15 0.76 0.76 91 1005.5
20260507013838 13 0.0 0.0 0.20 0.76 0.76 91 1005.5
20260507013320 13 0.0 0.0 0.20 0.76 0.76 91 1005.3
20260507012814 13 0.0 0.0 0.20 0.76 0.76 91 1005.2
20260507012306 13 0.0 0.0 0.20 0.76 0.76 91 1005.2
20260507011803 13 0.0 0.0 0.18 0.74 0.74 91 1005.3
20260507011758 13 0.0 0.0 0.20 0.76 0.76 91 1005.2
20260507011013 13 0.0 0.0 0.20 0.74 0.74 91 1005.2
20260507010236 14 0.0 0.0 0.18 0.71 0.71 92 1005.1
20260507005720 14 0.0 0.0 0.18 0.71 0.71 92 1005.1
20260507005438 14 0.0 0.0 0.15 0.69 0.69 92 1005.0
20260507004708 15 0.0 0.0 0.13 0.66 0.69 92 1004.9
20260507004148 15 0.0 0.0 0.05 0.58 0.58 93 1004.8
20260507003637 15 0.0 0.0 0.03 0.56 0.56 93 1004.5
20260507003129 15 0.0 0.0 0.03 0.56 0.56 93 1004.4
20260507002622 15 0.0 0.0 0.03 0.56 0.56 93 1004.4
20260507002347 15 0.0 0.0 0.03 0.56 0.56 93 1004.3
20260507001610 15 0.0 0.0 0.03 0.56 0.56 93 1004.3
20260507001100 15 0.0 0.0 0.03 0.56 0.56 93 1004.3
20260507000836 15 0.0 0.0 0.00 0.53 0.53 92 1004.1
20260507000046 15 0.0 0.0 0.00 0.53 0.53 92 1004.1
20260506235532 15 0.0 0.0 0.00 0.53 0.53 92 1004.1
20260506235004 15 0.0 0.0 0.00 0.53 0.53 92 1004.1
20260506234501 15 0.0 0.0 0.00 0.53 0.53 92 1004.0
20260506234004 15 0.0 0.0 0.00 0.53 0.53 92 1004.1
20260506233500 15 0.0 0.0 0.00 0.56 0.53 92 1004.0
20260506232947 15 0.0 0.0 0.00 0.56 0.53 92 1004.0
20260506232434 15 0.0 0.0 0.00 0.56 0.53 92 1003.8
20260506232409 15 0.0 0.0 0.00 0.58 0.53 92 1003.8
20260506231406 15 0.0 0.0 0.00 0.61 0.53 92 1003.8
20260506230905 15 0.0 0.0 0.00 0.61 0.53 92 1004.0
20260506230404 15 0.0 0.0 0.00 0.64 0.53 92 1003.8
20260506225857 15 0.0 0.0 0.00 0.64 0.53 92 1004.0
20260506225624 15 0.0 0.0 0.00 0.64 0.53 92 1003.8
20260506224847 15 0.0 0.0 0.00 0.64 0.53 92 1003.8
20260506224342 15 0.0 0.0 0.00 0.64 0.53 92 1004.0
20260506223835 15 0.0 0.0 0.00 0.64 0.53 92 1004.1
20260506223322 15 0.0 0.0 0.00 0.64 0.53 92 1004.0
20260506222803 15 0.0 0.0 0.00 0.64 0.53 92 1004.2
20260506222305 15 0.0 0.0 0.00 0.64 0.53 92 1004.0
20260506221804 15 0.0 0.0 0.00 0.64 0.53 93 1004.0
20260506221245 15 0.0 0.0 0.00 0.64 0.53 92 1004.2
20260506220744 15 0.0 0.0 0.00 0.64 0.53 92 1004.2
20260506220237 15 0.0 0.0 0.00 0.64 0.53 93 1004.2
20260506215723 16 0.0 0.0 0.03 0.64 0.53 93 1004.2
20260506215216 16 0.0 0.0 0.03 0.64 0.53 93 1004.3
20260506214718 16 0.0 0.0 0.03 0.64 0.53 93 1004.2
20260506214440 16 0.0 0.0 0.03 0.64 0.53 93 1004.2
20260506213705 16 0.0 0.0 0.03 0.64 0.53 93 1004.2
20260506213145 16 0.0 0.0 0.03 0.64 0.53 93 1004.2
20260506212627 16 0.0 0.0 0.03 0.64 0.53 93 1004.3
20260506212114 16 0.0 0.0 0.03 0.64 0.53 93 1004.4
20260506211614 16 0.0 0.0 0.03 0.64 0.53 93 1004.4
20260506211105 16 0.0 0.0 0.03 0.64 0.53 93 1004.4
20260506210837 16 0.0 0.0 0.05 0.64 0.53 93 1004.5
20260506210336 16 0.0 0.0 0.05 0.64 0.53 93 1004.4
20260506205819 16 0.0 0.0 0.05 0.61 0.51 93 1004.4
20260506205039 16 0.0 0.0 0.08 0.61 0.51 93 1004.5
20260506204540 16 0.0 0.0 0.08 0.61 0.51 93 1004.5
20260506204032 16 0.0 0.0 0.08 0.61 0.51 93 1004.5
20260506203530 16 0.0 0.0 0.10 0.61 0.51 93 1004.6
20260506203023 16 0.0 0.0 0.13 0.61 0.51 93 1004.6
20260506202514 16 0.0 0.0 0.15 0.61 0.51 93 1004.8
20260506202006 16 0.0 0.0 0.15 0.61 0.51 93 1004.8
20260506201505 16 0.0 0.0 0.15 0.61 0.51 93 1004.7
20260506201227 16 0.0 0.0 0.18 0.58 0.48 93 1004.8
20260506200952 16 0.0 0.0 0.18 0.61 0.51 93 1004.9
20260506195936 16 0.0 0.0 0.18 0.58 0.48 93 1004.9
20260506195434 15 0.0 0.0 0.15 0.56 0.46 93 1005.0
20260506194930 15 0.0 0.0 0.13 0.53 0.43 93 1005.1
20260506194638 15 0.0 0.0 0.15 0.53 0.43 93 1005.0
20260506193903 15 0.0 0.0 0.13 0.51 0.43 93 1005.1
20260506193403 15 0.0 0.0 0.13 0.48 0.41 92 1005.1